Regional Weather Roundup
Issued by NWS

Home | Current Version | Previous Version | Text Only | Print | Product List | Glossary On
Versions: 1 2 3 4 5 6 7 8 9 10 11 12 13 14 15 16 17 18 19 20 21 22 23 24 25 26 27 28 29 30 31 32 33 34 35 36 37 38 39 40 41 42 43 44 45 46 47 48 49 50
000
ASUS44 KEWX 020110
RWRTX
SOUTH TEXAS REGIONAL WEATHER ROUNDUP
NATIONAL WEATHER SERVICE AUSTIN/SAN ANTONIO TX
700 PM CST SUN FEB 01 2015

NOTE: "FAIR" INDICATED FEW OR NO CLOUDS BELOW 12,000 FEET WITH NO
SIGNIFICANT WEATHER AND/OR OBSTRUCTIONS TO VISIBILITY.

* - THESE STATIONS ARE NOT NWS OR FAA STATIONS...AND ARE NOT SUBJECT
    TO NWS AND FAA QUALITY CONTROL.

TXZ171-172-183>190-020200-
TEXAS HILL COUNTRY AND EDWARDS PLATEAU

CITY           SKY/WX    TMP DP  RH WIND       PRES   REMARKS
JUNCTION       CLEAR     50  38  63 N8        30.14R WCI  47
*LLANO         CLEAR     52  37  58 N12       30.18R
BURNET         CLEAR     50  36  58 N10       30.15R WCI  46
*HORSESHOE BAY CLEAR     53  39  59 N7        30.13R
*KERRVILLE     PTCLDY    52  44  74 N7        30.11R
*FREDERICKSBRG CLEAR     50  40  68 N8G20     30.12R WCI  47
*ROCKSPRINGS   CLEAR     54  43  66 NE12G17   30.11R
*BOERNE STAGE  MOCLDY    55  43  62 N14G20    30.09R
*CASTROVILLE   MOCLDY    61  47  60 N6        30.06R
HONDO          PTCLDY    60  47  61 N21G26    30.06R
*UVALDE        PTCLDY    62  48  60 NE10      30.05R
DEL RIO        CLEAR     63  48  58 N10       30.07R
LAUGHLIN AFB   CLEAR     61  49  63 NE9       30.07R
CARRIZO SPRGS  CLOUDY    70  54  56 NE17G25   29.98R
$$

TXZ173-191>194-202-209-217>225-228-020200-
CENTRAL AND SOUTH CENTRAL TEXAS

CITY           SKY/WX    TMP DP  RH WIND       PRES   REMARKS
GEORGETOWN     CLEAR     54  37  54 N10       30.12R
AUSTIN/BERGSTM PTCLDY    57  43  59 N21G29    30.09R
AUSTIN/MABRY   PTCLDY    56  41  57 N6G20     30.11R
*AUSTIN/EXEC   PTCLDY    54  41  62 N17       30.11R
*LAGO VISTA    PTCLDY    52  41  64 N6G16     30.12R
SAN MARCOS     CLEAR     57  45  62 N15       30.08R
NEW BRAUNFELS  MOCLDY    60  47  61 N20G25    30.06R
RANDOLPH AFB   MOCLDY    60  48  64 N20G25    30.06R
PT SAN ANTONIO MOCLDY    61  49  64 N17       30.04R
SAN ANTONIO    MOCLDY    60  46  59 N16G26    30.06R
STINSON FIELD  CLOUDY    63  48  58 N14G24    30.03R
*PLEASANTON    CLOUDY    65  50  57 N13G18    30.03R
*LA GRANGE     MOCLDY    59  48  66 N14G21    30.05R
*GIDDINGS      MOCLDY    56  41  56 N15G24    30.11R
*GONZALES      MOCLDY    61  50  65 N22G28    30.05R
$$

TXZ163>164-176>182-195>201-210>213-226-227-235-020200-
SOUTHEAST TEXAS

CITY           SKY/WX    TMP DP  RH WIND       PRES   REMARKS
COLLEGE STN    MOCLDY    56  40  55 N16G24    30.08R
*BRYAN         MOCLDY    55  41  60 N9G16     30.10R
*CALDWELL      MOCLDY    54  41  62 NW9       30.12R
*CROCKETT      MOCLDY    55  41  58 NW9G22    30.10R
*BRENHAM       MOCLDY    58  45  61 N18G26    30.07R
HUNTSVILLE     PTCLDY    56  42  59 N17G24    30.05R
CONROE         MOCLDY    60  47  61 N16G23    30.02R
HOUSTON BUSH   CLOUDY    64  50  60 N22G32    29.99R
HOUSTON HOBBY  CLOUDY    68  56  65 N23G33    29.96R
*HOUSTON SW AP CLOUDY    64  53  68 NW15G28   29.98R
PEARLAND       CLOUDY    71  60  68 N8        29.96R
HOUSTON HOOKS  CLOUDY    62  51  67 N14G21    30.00R
ELLINGTON FLD  NOT AVBL
SUGAR LAND     CLOUDY    65  53  65 NW16G30   29.98R
*HOUSTON EXEC  CLOUDY    61  50  67 N13       30.02R
*CLEVELAND MUN   N/A     61  52  72 N9        30.00R
*WHARTON       CLOUDY    64  54  71 N18G25    30.01R
*COLUMBUS      FAIR      60  49  65 N15       30.03R
$$

TXZ214>216-236>238-020200-
THE UPPER TEXAS COAST

CITY           SKY/WX    TMP DP  RH WIND       PRES   REMARKS
*ORANGE        CLOUDY    65  62  89 W8        29.94R
PORT ARTHUR    CLOUDY    67  64  90 W7        29.93R
GALVESTON      CLOUDY    66  62  87 SW12      29.93R
ANGLETON       MOCLDY    66  61  84 W5        29.95R
*BAY CITY      CLOUDY    67  64  91 W3        29.96R
PALACIOS       CLOUDY    66  63  90 NW5       29.96R
$$

TXZ229>234-239>247-020200-
TEXAS COASTAL BEND AND RIO GRANDE PLAINS

CITY           SKY/WX    TMP DP  RH WIND       PRES   REMARKS
VICTORIA       CLOUDY    70  56  61 N25G36    29.98R
*BEEVILLE      CLOUDY    68  60  74 N7        29.97R
ROCKPORT       CLOUDY    65  61  87 CALM      29.96R
*PORT ARANSAS  CLOUDY    64  62  94 CALM      29.95R
*PORT LAVACA   CLOUDY    67  62  84 CALM      29.96R
*INGLESIDE     CLOUDY    66  61  85 CALM      29.95R
CORPUS CHRISTI CLOUDY    68  61  78 CALM      29.94R
CORPUS NAS     CLOUDY    67  64  90 CALM      29.95R
*ROBSTOWN      CLOUDY    73  60  64 N10       29.95R
ALICE          CLOUDY    72  58  61 N13       29.96R
KINGSVILLE NAS CLOUDY    74  61  63 N8        29.95R
COTULLA        CLOUDY    69  52  54 NE17G26   30.00R
*FAITH RANCH   CLOUDY    66  57  72 CALM      29.98R
LAREDO         CLOUDY    67  56  67 N6        30.00R
$$

TXZ248>255-020200-
DEEP SOUTH TEXAS

CITY           SKY/WX    TMP DP  RH WIND       PRES   REMARKS
BROWNSVILLE    CLOUDY    69  62  78 S6        29.93R
PORT ISABEL    CLOUDY    70  62  76 S10       29.92R
*SOUTH PADRE   CLOUDY    64  64 100 CALM      29.93R
HARLINGEN      CLOUDY    71  64  78 CALM      29.92R
*HEBBRONVILLE  CLOUDY    69  54  60 NW7       29.98S
MCALLEN        LGT RAIN  74  61  63 CALM      29.95R
*WESLACO       CLOUDY    70  62  73 NW7       29.94R
FALFURRIAS     CLOUDY    73  56  56 N6        29.94R
EDINBURG       CLOUDY    75  60  60 CALM      29.94R
*ZAPATA        CLOUDY    69  56  62 CALM      29.96R
$$

TXZ213>215-236>238-242>244-246-247-251-254-255-020200-
CMAN STATIONS

STATION/POSITION TIME  TEMP    WIND        PRES    WAVE
                       AIR SEA DIR/SP/G            HT/PER
                 (UTC) (F)     (DEG/KT/KT) (MB)    (FT/S)
SABINE PASS      0100   65 57  250/  8/ 14 1012.8
SEA RIM ST PARK  0100   62     280/  9/ 12 1014.2
NORTH JETTY/GLS  0100   66 58  250/ 11/ 13   N/A
EAGLE POINT      0100   66 60  320/  7/ 12 1014.0
MORGANS POINT    0100   68     310/ 10/ 14 1013.8
MISSION/ARANSAS  0000   65     VRB  3      1014.0
PORT O`CONNOR    0100          230/  7/  8   N/A
PORT ARANSAS     0100   63 61  350/  3/  3 1014.7
MALAQUITE BEACH  0100   63 63   60/  2/  2 1013.2
BAFFIN BAY       0100   66     150/  8/  9 1013.4
PORT ISABEL      0100   68 63  170/  7/ 11 1013.4
$$

GMZ080-GMZ150>470-020200-
OFFSHORE BUOY REPORTS

STATION/POSITION TIME  TEMP    WIND        PRES    WAVE
                       AIR SEA DIR/SP/G            HT/PER
                 (UTC) (F)     (DEG/KT/KT) (MB)    (FT/S)
20 E GALVESTON   0100   62 59  230/ 10/ 12 1012.9    3/ 6
90 E PT ARANSAS  0100   69 68  240/  6/  6 1013.8    4/ 7
35 NE PT MANSFLD 0100   66 64  160/  6/  6 1013.3    3/ 6
200 E PT ISABEL  0100   72 72  180/  8/ 10 1013.8    4/ 6
$$


USA.gov is the U.S. government's official web portal to all federal, state and local government web resources and services.